Date,TemperatureHighF,TemperatureAvgF,TemperatureLowF,DewpointHighF,DewpointAvgF,DewpointLowF,HumidityHigh,HumidityAvg,HumidityLow,PressureMaxIn,PressureMinIn,WindSpeedMaxMPH,WindSpeedAvgMPH,GustSpeedMaxMPH,PrecipitationSumIn
2013-2-1,69,54,44,47,44,41,92,71,41,30.22,30.11,5,0,0,0.00
2013-2-2,60,51,45,48,46,43,94,85,62,30.29,30.20,3,0,0,0.00
2013-2-3,59,49,42,45,43,40,94,79,53,30.25,30.14,4,0,0,0.00
2013-2-4,58,49,43,48,46,41,96,89,67,30.17,30.07,3,0,0,0.00
2013-2-5,61,50,43,48,43,40,91,77,57,30.15,30.06,4,0,0,0.00
2013-2-6,60,49,41,44,40,38,91,75,48,30.20,30.12,4,0,0,0.00
2013-2-7,57,49,43,46,42,37,92,77,54,30.17,30.00,4,0,0,0.08
2013-2-8,56,47,40,43,39,33,94,75,51,30.02,29.93,4,0,0,0.02
2013-2-9,62,48,38,34,30,22,78,54,24,30.09,29.98,2,0,0,0.00
2013-2-10,62,48,38,40,35,31,86,65,35,30.11,30.03,3,0,0,0.00
2013-2-11,67,51,41,45,34,24,93,56,22,30.23,30.06,3,0,0,0.00
2013-2-12,63,50,42,46,42,37,95,78,43,30.35,30.23,3,0,0,0.00
2013-2-13,61,49,42,48,44,39,96,83,50,30.34,30.23,2,0,0,0.00
2013-2-14,70,54,43,49,44,42,97,73,37,30.24,30.16,2,0,0,0.00
2013-2-15,74,62,48,43,36,30,80,41,26,30.26,30.18,12,1,0,0.00
2013-2-16,72,56,46,48,44,36,91,67,40,30.23,30.06,3,0,0,0.00
2013-2-17,62,51,44,47,44,41,95,78,47,30.06,29.98,2,0,0,0.00
2013-2-18,55,49,44,45,40,36,91,72,54,30.04,29.96,7,1,0,0.00
2013-2-19,50,45,39,44,38,33,92,77,57,29.97,29.75,5,0,0,0.32
2013-2-20,61,47,37,40,35,32,86,66,37,30.06,29.84,2,0,0,0.00
2013-2-21,64,49,38,38,35,27,89,63,26,30.16,30.05,3,0,0,0.00
2013-2-22,63,50,40,45,40,35,89,71,36,30.25,30.16,5,0,0,0.00
2013-2-23,62,52,44,47,37,28,91,62,28,30.26,30.17,4,0,0,0.00
2013-2-24,65,52,43,41,30,19,77,47,18,30.25,30.18,4,0,0,0.00
2013-2-25,65,52,42,45,42,38,93,72,43,30.26,30.18,6,0,0,0.00
2013-2-26,70,52,40,41,34,21,81,54,16,30.21,30.15,2,0,0,0.00
2013-2-27,66,52,41,45,40,32,87,67,35,30.36,30.20,3,0,0,0.00
2013-2-28,66,54,46,51,47,43,93,79,54,30.45,30.36,4,0,0,0.00